Dewpoint
54 54 55 56 56 56 56 56 56 56 56 56 56 56 57 58 58 48 43 42 49 70 72 54 57 55 55 55 51 58 54 48 44 44 45 48 51 54 57 58 58 59 60 60 61
54 54 54 55 56 56 57 57 57 57 56 56 56 57 58 58 50 38 48 63 70 72 51 35 40 50 51 49 49 50 50 47 45 46 45 48 52 53 56 57 58 59 61 61 61
54 55 55 54 55 56 56 57 57 57 56 56 56 57 59 57 44 34 69 64 70 70 38 28 32 35 43 44 44 51 45 46 43 45 46 45 45 50 51 55 57 58 60 61 60
54 54 54 54 55 55 56 56 56 57 56 55 57 58 59 52 29 35 69 73 71 55 34 25 23 32 39 40 42 40 45 43 31 46 45 44 44 48 49 54 59 59 60 60 57
54 55 55 55 55 55 55 56 56 56 56 56 59 60 54 41 31 31 67 70 59 45 31 27 26 31 37 39 39 37 36 30 27 43 46 44 47 50 51 57 58 58 58 57 57
55 55 56 56 55 55 55 55 55 55 55 56 60 59 49 29 22 43 51 51 44 39 30 26 29 32 38 37 33 33 33 28 30 43 46 43 48 51 53 57 57 57 57 57 57
55 55 55 55 55 54 54 54 55 55 55 55 60 54 44 34 27 32 42 41 40 37 33 28 31 34 37 36 33 32 25 26 28 38 42 44 44 48 53 55 56 56 57 57 57
55 55 55 55 54 54 54 53 54 55 55 55 57 52 42 30 29 29 26 29 40 38 36 37 36 35 33 31 28 29 28 23 28 37 40 41 42 46 52 54 55 55 56 56 56
55 55 54 54 54 53 53 53 54 56 56 58 53 50 42 44 30 26 25 24 31 35 37 37 32 29 30 27 27 27 23 24 38 38 38 45 46 47 52 52 53 54 55 55 55
54 54 54 53 53 52 52 53 52 54 53 51 49 46 44 29 24 26 24 24 22 31 29 31 26 26 24 26 24 25 24 24 37 40 43 46 46 44 48 52 53 53 54 53 54
54 53 53 53 53 52 49 43 21 33 21 16 26 42 36 25 -1 2 26 22 22 22 26 25 21 22 24 23 26 25 26 28 35 36 47 46 46 46 45 49 52 53 53 53 52
53 53 53 53 52 51 49 30 19 20 18 19 18 16 13 10 4 2 3 24 21 20 22 20 17 23 23 22 23 24 23 25 37 43 47 47 45 43 47 44 50 52 52 52 52
53 53 53 52 51 47 36 24 18 17 19 17 16 14 13 12 8 5 1 23 21 20 20 18 18 22 21 18 19 21 21 22 36 43 47 48 50 49 53 53 46 51 53 52 53
53 53 52 51 43 37 35 23 19 15 20 17 14 15 13 9 7 7 3 13 23 19 20 21 18 19 19 16 17 17 21 21 39 40 39 43 46 52 52 51 44 46 51 53 53
52 52 52 51 44 38 36 28 20 18 19 13 16 17 16 8 6 4 7 3 21 19 23 23 17 15 17 15 15 15 18 20 35 39 39 42 48 49 53 51 48 45 50 51 53
52 52 51 46 44 41 36 24 22 20 17 11 10 13 12 15 14 13 -0 5 17 22 20 22 21 17 15 14 14 15 15 17 24 35 40 39 38 41 52 52 52 52 48 51 53
51 51 50 46 37 34 32 24 20 15 16 11 9 1 -1 -3 1 10 -0 -0 8 21 20 19 18 18 14 10 13 14 13 15 21 22 41 42 34 33 48 49 49 51 48 49 51
50 50 48 43 41 39 23 21 19 16 15 12 8 3 1 -2 -0 -0 3 8 14 19 21 19 18 17 15 10 9 14 13 15 21 24 23 31 33 36 47 51 52 51 51 50 50
49 42 40 39 38 22 22 17 19 20 15 13 11 6 7 3 10 7 1 2 13 17 20 18 18 19 14 12 8 10 15 16 16 18 23 22 38 43 46 46 45 43 43 48 49
46 42 40 34 26 25 21 21 16 15 15 16 14 15 15 16 15 14 14 4 10 16 19 19 20 20 16 11 10 7 19 13 15 16 21 25 30 39 44 45 45 45 47 52 50
45 36 34 26 29 28 17 19 18 13 13 13 12 12 12 12 13 13 14 14 13 11 16 18 18 18 22 13 7 10 10 20 16 21 20 23 27 42 42 42 44 45 45 45 47
39 34 35 31 25 25 20 21 24 14 15 12 13 13 14 15 12 11 14 15 16 15 14 25 23 18 18 22 15 8 11 17 16 18 23 23 26 37 37 44 42 44 49 49 49
39 37 37 28 22 20 19 15 16 15 14 13 14 16 17 16 18 16 15 14 15 15 19 21 24 22 21 21 21 11 12 13 18 23 21 23 22 34 33 37 38 45 43 47 48
40 32 33 33 30 25 24 19 15 15 18 19 20 21 20 19 17 19 19 17 13 14 42 38 20 23 21 23 25 17 7 13 13 15 18 21 29 31 35 42 44 45 46 47 47
41 33 33 28 28 28 26 21 16 22 21 21 22 20 22 22 17 19 24 29 33 36 26 17 21 24 23 24 24 25 14 9 13 13 20 20 26 33 42 43 43 41 51 49 50
38 35 35 32 31 28 28 29 25 21 22 24 26 24 25 24 25 24 26 27 34 33 33 22 23 28 28 27 28 26 26 8 10 13 13 19 24 37 43 42 43 41 48 52 51
44 40 37 34 29 27 33 32 28 21 23 24 27 30 28 28 33 31 28 27 34 36 34 28 32 32 28 31 30 27 28 24 10 15 16 16 27 36 41 41 44 44 39 43 55
Lifted_Index
15 15 15 14 14 14 13 13 13 14 14 14 14 14 14 13 11 10 8 8 7 4 3 3 2 -0 -2 -2 -1 -1 -2 -3 -3 -2 -2 -2 -2 -2 -1 -1 -1 -1 -1 -1 -0
15 15 15 14 14 14 14 13 13 13 14 14 14 14 14 13 11 9 8 8 6 4 5 5 4 1 -1 -1 -1 -1 -2 -3 -3 -2 -2 -1 -1 -1 -1 -1 -1 -1 -1 -0 -0
15 15 15 15 14 14 14 14 14 14 14 14 14 13 13 12 10 8 7 6 5 5 7 7 5 3 1 -0 -1 -1 -2 -2 -2 -2 -2 -1 -1 -0 -0 -0 -1 -1 -1 -1 -1
16 16 15 15 15 15 14 14 14 14 14 14 13 12 12 11 9 8 7 5 4 6 7 7 6 4 2 1 -0 -1 -1 -1 -2 -2 -2 -1 -0 0 0 -0 -1 -1 -1 -0 -0
16 16 15 15 15 15 15 15 14 14 14 13 12 11 11 10 9 8 7 5 5 7 8 7 6 4 2 1 1 0 -1 -1 -1 -2 -2 -1 -0 0 0 -0 -1 -1 -0 -0 0
16 16 15 15 15 15 15 15 15 15 14 13 12 11 10 9 9 8 7 7 7 8 8 7 5 4 2 2 2 1 0 -0 -1 -2 -2 -1 0 0 0 -0 -0 -0 -0 -0 0
15 15 15 15 15 15 15 15 15 15 15 13 11 11 10 9 9 9 8 8 8 8 7 6 5 4 3 2 3 2 1 0 -0 -1 -1 -0 1 1 0 0 -0 -0 -0 0 0
14 14 14 14 15 15 15 15 15 15 14 13 11 10 9 9 10 9 9 9 8 7 6 6 5 4 4 3 3 3 2 1 -0 -1 -1 -0 1 1 1 1 0 0 0 0 0
13 13 13 13 13 14 14 14 14 13 12 11 10 9 8 9 9 10 9 9 8 7 6 6 6 5 5 4 3 3 3 1 -0 -1 -1 -0 1 1 1 1 1 1 1 1 1
11 11 11 12 12 12 11 11 11 11 10 10 9 9 8 9 9 9 9 9 9 8 7 7 6 6 5 4 3 3 2 1 -0 -1 -1 -1 0 1 1 1 1 1 1 1 1
10 10 10 10 10 10 9 9 10 10 9 9 9 9 8 9 10 9 9 9 8 8 8 7 6 6 5 4 3 3 2 1 -0 -1 -1 -1 -0 1 1 1 1 1 1 1 1
10 10 10 10 9 8 8 8 9 9 8 8 9 9 9 10 10 9 9 9 8 8 8 7 6 6 5 5 4 3 2 1 -0 -1 -1 -1 -1 -0 1 1 1 1 1 1 1
10 10 10 10 9 7 7 8 9 8 6 5 7 8 9 9 9 9 9 8 8 7 7 7 6 6 6 5 4 3 2 1 -0 -1 -1 -1 -1 -1 -0 1 1 1 1 1 1
10 10 10 10 9 7 7 7 8 7 5 4 5 7 8 9 9 9 9 8 8 7 7 7 6 6 6 5 4 3 2 1 -0 -1 -1 -1 -1 -0 -0 0 1 0 0 1 1
11 11 11 10 9 8 7 8 8 6 3 2 3 4 6 7 7 8 8 8 7 7 6 6 6 6 6 5 4 3 2 1 -0 -1 -0 -0 -0 0 -0 -0 0 -0 -1 -0 0
11 11 11 10 9 8 8 8 7 4 2 1 1 2 3 4 5 6 7 7 7 6 6 6 6 6 5 5 4 3 2 1 -0 -0 0 0 -0 -0 -1 -0 -0 -1 -1 -1 -0
12 12 11 10 9 9 8 7 5 3 2 1 1 1 1 3 4 5 5 6 6 6 5 5 5 5 5 5 4 3 2 1 -0 -1 -0 0 -0 -1 -1 -0 -0 -1 -1 -1 -1
12 11 10 8 8 9 8 6 4 3 3 2 2 1 1 2 3 3 4 5 5 5 5 5 4 5 5 4 4 3 2 1 0 -1 -0 -0 0 -0 -1 -1 -1 -1 -2 -1 -1
11 10 8 8 8 9 8 6 4 4 4 4 3 3 2 2 3 2 3 3 4 4 4 4 4 4 4 4 3 3 2 2 1 -0 -1 -0 -0 -0 -0 -0 -1 -1 -1 -1 -2
10 9 8 8 8 8 7 5 5 5 6 5 4 4 4 4 3 2 2 2 2 2 3 4 3 3 3 3 3 2 2 1 1 0 -0 -0 -0 -0 -0 0 0 0 0 -0 -1
9 8 7 8 8 7 6 5 5 6 7 6 5 5 5 4 4 3 2 2 2 2 2 3 3 2 2 1 2 2 2 1 1 1 0 0 -0 -0 0 0 0 1 1 1 0
8 7 7 7 7 7 6 6 6 6 6 6 6 6 5 5 4 3 3 3 3 3 3 2 2 2 1 1 1 1 1 1 1 1 1 1 0 0 0 0 0 0 0 -0 -1
7 6 6 7 6 6 6 6 6 5 5 5 6 6 5 5 4 3 3 4 5 4 4 3 3 2 1 1 1 1 1 1 2 2 2 1 0 -0 0 0 -0 -0 -1 -1 -2
7 7 6 6 6 6 5 5 4 4 4 4 5 5 5 5 5 4 4 5 5 5 4 4 4 3 2 2 1 1 0 1 1 2 2 1 0 -0 -0 -0 -0 -1 -1 -2 -2
7 7 7 6 6 5 4 3 3 2 3 3 4 4 4 5 5 5 4 5 5 5 5 5 5 4 3 2 2 1 1 1 1 2 2 1 0 -0 -0 -0 -0 -1 -2 -2 -2
8 8 8 7 6 4 3 2 2 2 2 2 2 2 3 4 5 5 5 5 4 4 5 5 5 4 4 3 2 1 1 1 1 2 2 2 1 -0 -1 -0 -0 -1 -1 -3 -3
8 8 8 8 6 4 2 1 1 1 1 1 1 1 2 3 4 5 5 5 4 4 4 5 5 4 3 3 2 1 1 1 1 2 2 2 1 -0 -1 -0 -0 -0 -1 -2 -4